W6KRP-12 Weather Reports


time (UTC)temp
F
wind
direction
speed
knots
gust
knots
rain 1hr
in
rain 24hr
in
rain mn
in
humidity
%
barometer
mb
20260506160006 81 222 0.0 6.1 0.00 0.00 0.00 53 1013.6
20260506155006 81 184 0.9 8.7 0.00 0.00 0.00 54 1013.9
20260506154008 80 343 1.7 6.1 0.00 0.00 0.00 55 1013.9
20260506153007 80 311 1.7 10.4 0.00 0.00 0.00 55 1014.0
20260506151006 78 90 0.0 7.8 0.00 0.00 0.00 59 1014.2
20260506150006 79 94 0.0 4.3 0.00 0.00 0.00 58 1014.0
20260506145006 79 225 2.6 7.0 0.00 0.00 0.00 55 1013.8
20260506144006 79 185 0.9 6.1 0.00 0.00 0.00 55 1014.0
20260506143006 79 225 0.0 5.2 0.00 0.00 0.00 61 1014.0
20260506142006 79 155 1.7 2.6 0.00 0.00 0.00 63 1014.1
20260506141006 77 270 0.0 1.7 0.00 0.00 0.00 66 1014.0
20260506140006 77 225 0.0 2.6 0.00 0.00 0.00 66 1013.9
20260506135006 76 310 0.9 4.3 0.00 0.00 0.00 68 1013.8
20260506133006 74 311 1.7 5.2 0.00 0.00 0.00 72 1013.7
20260506132006 73 312 0.0 2.6 0.00 0.00 0.00 75 1013.5
20260506131006 72 220 0.9 5.2 0.00 0.00 0.00 77 1013.6
20260506130006 71 48 0.0 2.6 0.00 0.00 0.00 78 1013.7
20260506125007 71 228 0.9 4.3 0.00 0.00 0.00 79 1013.8
20260506124007 70 269 0.9 0.9 0.00 0.00 0.00 82 1013.7
20260506122006 68 45 0.0 1.7 0.00 0.00 0.00 90 1013.5
20260506121006 65 225 0.0 1.7 0.00 0.00 0.00 95 1013.5
20260506114006 60 90 0.0 0.0 0.00 0.00 0.00 97 1013.5
20260506112006 59 90 0.0 0.0 0.00 0.00 0.00 96 1013.5
20260506111006 58 90 0.0 0.0 0.00 0.00 0.00 96 1013.3
20260506105007 58 90 0.0 0.0 0.00 0.00 0.00 97 1013.4
20260506104006 56 90 0.0 0.0 0.00 0.00 0.00 97 1013.1
20260506103007 56 90 0.0 0.0 0.00 0.00 0.00 97 1013.3
20260506102006 57 90 0.0 0.9 0.00 0.00 0.00 97 1013.0
20260506095006 57 90 0.0 0.0 0.00 0.00 0.00 96 1013.3
20260506094006 57 90 0.0 0.0 0.00 0.00 0.00 96 1013.3
20260506092006 57 315 0.0 0.0 0.00 0.00 0.00 96 1013.4
20260506091006 57 315 0.0 0.0 0.00 0.00 0.00 96 1013.5
20260506090006 57 315 0.0 0.0 0.00 0.00 0.00 96 1013.2
20260506084006 58 315 0.0 0.0 0.00 0.00 0.00 95 1013.0
20260506083006 58 315 0.0 0.0 0.00 0.00 0.00 95 1013.2
20260506082006 58 315 0.0 0.9 0.00 0.00 0.00 95 1013.2
20260506081007 58 315 0.0 0.0 0.00 0.00 0.00 95 1013.1
20260506073006 58 90 0.0 0.0 0.00 0.00 0.00 95 1012.8
20260506072006 58 315 0.0 0.0 0.00 0.00 0.00 95 1013.0
20260506071007 58 315 0.0 0.0 0.00 0.00 0.00 96 1013.0
20260506062006 56 90 0.9 0.9 0.00 0.00 0.00 96 1013.0
20260506061006 56 90 0.0 0.9 0.00 0.00 0.00 95 1013.4
20260506043006 57 90 0.0 0.9 0.00 0.00 0.00 93 1014.4
20260506042006 58 90 0.0 0.9 0.00 0.00 0.00 93 1014.1
20260506041006 58 88 0.0 0.9 0.00 0.00 0.00 92 1014.1
20260506040009 58 315 0.0 0.9 0.00 0.00 0.00 92 1014.2
20260506034006 59 45 0.0 0.0 0.00 0.00 0.00 90 1014.5
20260506033006 59 45 0.0 0.9 0.00 0.00 0.00 90 1014.4
20260506032006 60 42 0.0 0.0 0.00 0.00 0.00 89 1014.6
20260506031006 60 0 0.0 0.0 0.00 0.00 0.00 87 1014.7
20260506030006 61 0 0.0 0.0 0.00 0.00 0.00 87 1014.7
20260506025007 61 90 0.0 0.0 0.00 0.00 0.00 86 1014.8
20260506023007 62 90 0.0 0.0 0.00 0.00 0.00 85 1014.5
20260506022006 62 90 0.0 0.0 0.00 0.00 0.00 84 1014.6
20260506021006 63 90 0.0 0.0 0.00 0.00 0.00 81 1014.5
20260506020007 63 90 0.0 0.0 0.00 0.00 0.00 81 1014.4
20260506015006 64 90 0.0 0.0 0.00 0.00 0.00 81 1014.3
20260506014006 64 90 0.0 0.0 0.00 0.00 0.00 80 1014.4
20260506013006 65 90 0.0 0.9 0.00 0.00 0.00 79 1014.2
20260506011006 66 90 0.0 0.9 0.00 0.00 0.00 77 1014.1
20260506005007 67 135 0.0 0.9 0.00 0.00 0.00 74 1013.9
20260506003006 69 180 0.0 0.9 0.00 0.00 0.00 70 1013.9
20260506002006 69 180 0.9 1.7 0.00 0.00 0.00 69 1013.8
20260506001006 70 180 0.9 1.7 0.00 0.00 0.00 68 1013.8
20260506000006 71 180 0.9 1.7 0.00 0.00 0.00 66 1014.0
20260505235007 71 178 0.9 1.7 0.00 0.00 0.00 65 1013.8
20260505234007 73 180 0.9 1.7 0.00 0.00 0.00 61 1013.7
20260505233006 75 180 0.9 2.6 0.00 0.00 0.00 58 1013.8
20260505232006 76 180 0.9 2.6 0.00 0.00 0.00 56 1013.8
20260505231006 76 266 0.9 2.6 0.00 0.00 0.00 55 1013.8
20260505230007 76 180 0.9 2.6 0.00 0.00 0.00 54 1013.6
20260505225007 76 180 0.9 2.6 0.00 0.00 0.00 54 1013.6
20260505224007 77 180 0.9 2.6 0.00 0.00 0.00 53 1013.5
20260505223007 77 180 0.9 2.6 0.00 0.00 0.00 52 1013.7
20260505222006 77 180 0.9 2.6 0.00 0.00 0.00 51 1013.6
20260505221006 77 180 0.9 2.6 0.00 0.00 0.00 51 1013.5
20260505220006 77 180 0.9 2.6 0.00 0.00 0.00 51 1013.6
20260505215006 77 183 0.9 2.6 0.00 0.00 0.00 50 1013.7
20260505214006 78 135 0.9 2.6 0.00 0.00 0.00 49 1013.6
20260505213006 78 180 0.9 2.6 0.00 0.00 0.00 48 1013.7
20260505212006 79 180 0.9 2.6 0.00 0.00 0.00 47 1013.6
20260505211006 79 180 0.9 2.6 0.00 0.00 0.00 47 1013.7
20260505210006 80 180 1.7 2.6 0.00 0.00 0.00 47 1013.7
20260505205006 80 180 0.9 2.6 0.00 0.00 0.00 46 1013.6
20260505204007 81 180 0.9 2.6 0.00 0.00 0.00 45 1013.6
20260505203006 82 222 1.7 2.6 0.00 0.00 0.00 44 1013.8
20260505202007 82 180 0.9 4.3 0.00 0.00 0.00 43 1013.7
20260505200006 83 138 0.9 2.6 0.00 0.00 0.00 43 1013.8
20260505195006 85 180 0.9 2.6 0.00 0.00 0.00 41 1014.0
20260505194007 85 225 0.9 4.3 0.00 0.00 0.00 41 1014.1
20260505193007 86 180 0.9 2.6 0.00 0.00 0.00 40 1014.0
20260505192006 86 180 0.9 2.6 0.00 0.00 0.00 41 1014.2
20260505191007 85 181 0.9 2.6 0.00 0.00 0.00 41 1014.5
20260505190006 85 180 0.9 2.6 0.00 0.00 0.00 41 1014.6
20260505185006 86 235 0.9 2.6 0.00 0.00 0.00 39 1014.8
20260505184006 86 135 0.9 5.2 0.00 0.00 0.00 41 1014.8
20260505183006 86 180 0.9 4.3 0.00 0.00 0.00 39 1014.5
20260505182006 85 180 0.9 2.6 0.00 0.00 0.00 41 1014.6
20260505181006 85 92 1.7 2.6 0.00 0.00 0.00 39 1014.6
20260505180006 85 220 0.9 5.2 0.00 0.00 0.00 40 1014.6
20260505175006 85 94 0.9 2.6 0.00 0.00 0.00 41 1014.6
20260505173006 81 180 0.9 2.6 0.00 0.00 0.00 49 1015.1
20260505172006 79 180 0.9 2.6 0.00 0.00 0.00 49 1015.2
20260505171006 79 138 0.0 2.6 0.00 0.00 0.00 49 1015.2
20260505170006 78 138 0.9 1.7 0.00 0.00 0.00 51 1015.4
20260505164006 77 137 0.9 7.0 0.00 0.00 0.00 52 1015.5
20260505162006 77 90 0.9 2.6 0.00 0.00 0.00 51 1015.6
20260505161006 76 174 0.9 4.3 0.00 0.00 0.00 55 1015.9